Flag for Hong Kong

Past Weather in 22°14'52"N, 114°12'10"E, Hong Kong — Yesterday and Last 2 Weeks

Now
81 °F

Passing clouds.


Feels Like: 87 °F
Forecast: 88 / 77 °F
Wind: 8 mph from East

Location: Hong Kong International Airport

Current Time: Aug 3, 2020 at 11:47:53 pm

Latest Report: Aug 3, 2020 at 11:00 pm


Visibility: N/A

Pressure: 29.65 "Hg

Humidity: 89%

Dew Point: 77 °F

Location of 22°14'52"N, 114°12'10"ELocation

Past Weather in 22°14'52"N, 114°12'10"E — Graph

°F

22°14'52"N, 114°12'10"E Temperature Yesterday

Maximum temperature yesterday: 88 °F (at 1:30 pm)
Minimum temperature yesterday: 79 °F (at 3:00 am)
Average temperature yesterday: 82 °F

High & Low Weather Summary for the Past Weeks

 TemperatureHumidityPressure
High97 °F (Jul 28, 3:00 pm)100% (Aug 3, 8:30 am)29.89 "Hg (Aug 3, 8:30 am)
Low79 °F (Jul 30, 7:00 am)44% (Jul 28, 12:30 pm)29.59 "Hg (Jul 31, 4:30 pm)
Average86 °F74%29.73 "Hg
* Reported Jul 19 10:00 pm — Aug 3 10:30 pm, 22°14'52"N, 114°12'10"E. Weather by CustomWeather, © 2020

Note: Actual official high and low records may vary slightly from our data, if they occured in-between our weather recording intervals... More about our weather records

22°14'52"N, 114°12'10"E Weather History for the Previous 24 Hours

Scroll right to see more
 ConditionsComfort  
Time TempWeatherWind HumidityBarometerVisibility
10:30 pm
Mon, Aug 3
81 °FPassing clouds.10 mph89%29.65 "HgN/A
10:00 pm81 °FPassing clouds.9 mph89%29.65 "HgN/A
9:30 pm81 °FPassing clouds.10 mph89%29.65 "HgN/A
9:00 pm82 °FPassing clouds.9 mph84%29.62 "HgN/A
8:30 pm81 °FPassing clouds.7 mph84%29.62 "HgN/A
8:00 pm81 °FPassing clouds.8 mph84%29.62 "HgN/A
7:30 pm82 °FPassing clouds.8 mph84%29.59 "HgN/A
7:00 pm82 °FScattered clouds.9 mph84%29.59 "HgN/A
6:30 pm82 °FScattered clouds.7 mph84%29.59 "HgN/A
6:00 pm82 °FScattered clouds.8 mph84%29.59 "HgN/A
5:30 pm82 °FScattered clouds.9 mph84%29.59 "HgN/A
5:00 pm82 °FScattered clouds.8 mph84%29.59 "HgN/A
4:30 pm81 °FSprinkles. Scattered clouds.8 mph89%29.59 "HgN/A
4:00 pm81 °FSprinkles. Scattered clouds.7 mph89%29.59 "HgN/A
3:30 pm81 °FSprinkles. Scattered clouds.7 mph94%29.59 "HgN/A
3:00 pm81 °FSprinkles. Scattered clouds.8 mph94%29.59 "HgN/A
2:30 pm79 °FSprinkles. Scattered clouds.6 mph94%29.62 "HgN/A
2:00 pm79 °FRain showers. Scattered clouds.3 mph94%29.62 "Hg4 mi
1:32 pm79 °FWarm.3 mph94%29.62 "Hg1 mi
1:16 pm79 °FWarm.2 mph94%29.62 "Hg1 mi
1:00 pm79 °FRain. Cloudy.7 mph94%29.65 "Hg1 mi
12:30 pm81 °FWarm.8 mph89%29.65 "Hg3 mi
12:00 pm82 °FWarm.9 mph89%29.65 "HgN/A
11:30 am86 °FScattered showers. Scattered clouds.7 mph75%29.65 "HgN/A
11:00 am84 °FScattered clouds.9 mph79%29.65 "HgN/A
10:30 am82 °FScattered clouds.10 mph84%29.65 "HgN/A
10:00 am82 °FPassing clouds.12 mph84%29.65 "HgN/A
9:30 am81 °FSprinkles. Scattered clouds.10 mph89%29.65 "HgN/A
9:00 am81 °FScattered showers. Scattered clouds.8 mph89%29.65 "HgN/A
8:30 am79 °FRain. Cloudy.12 mph100%29.65 "Hg4 mi
8:00 am82 °FScattered showers. Scattered clouds.6 mph84%29.62 "HgN/A
7:30 am81 °FScattered clouds.7 mph89%29.62 "HgN/A
7:00 am81 °FScattered clouds.8 mph89%29.62 "HgN/A
6:30 am79 °FPassing clouds.9 mph94%29.62 "HgN/A
6:00 am79 °FPassing clouds.8 mph94%29.62 "HgN/A
5:30 am79 °FPassing clouds.9 mph89%29.62 "HgN/A
5:00 am79 °FPassing clouds.9 mph94%29.59 "HgN/A
4:30 am79 °FPassing clouds.8 mph94%29.59 "HgN/A
4:00 am79 °FPassing clouds.8 mph94%29.62 "HgN/A
3:30 am79 °FPassing clouds.6 mph94%29.62 "HgN/A
3:00 am81 °FPassing clouds.5 mph84%29.62 "HgN/A
2:30 am81 °FPassing clouds.10 mph84%29.62 "HgN/A
2:00 am81 °FPartly cloudy.5 mph89%29.62 "HgN/A
1:30 am79 °FLight rain. Partly cloudy.6 mph94%29.65 "Hg5 mi
1:00 am81 °FLight rain. Partly cloudy.9 mph84%29.65 "HgN/A
12:38 am79 °FPartly cloudy.13 mph94%29.65 "HgN/A
12:30 am79 °FRain. Partly cloudy.12 mph94%29.65 "HgN/A
12:00 am79 °FPartly cloudy.9 mph94%29.65 "Hg4 mi
11:30 pm
Sun, Aug 2
81 °FPartly cloudy.7 mph89%29.68 "HgN/A
11:00 pm81 °FSprinkles. Partly cloudy.12 mph89%29.68 "Hg5 mi
Weather by CustomWeather, © 2020

See weather overview